Other Public Products
Issued by NWS Charleston, SC

Current Version | Previous Version | Text Only | Print | Product List | Glossary Off
Versions: 1 2 3 4 5 6 7 8 9 10 11 12 13 14 15 16 17 18 19 20 21 22 23 24 25 26 27 28 29 30 31 32 33 34 35 36 37 38 39 40 41 42 43 44 45 46 47 48 49 50

014
FPUS82 KCHS 230712
OPUCHS

TEST...KCHS/KSAV Gateway Observations...TEST
National Weather Service Charleston SC
300 AM EDT SUN JUL 23 2017

NOTE: "fair" indicates few or no clouds below 12,000 feet with no
significant weather and/or obstructions to visibility.

SCZ050-WAZ558-NCZ071-TXZ119-213-PAZ071-DCZ001-FLZ074-172-MI076-
NYZ176-178-MAZ016-IL014-TNZ027-NJZ106-GAZ044-MD014-230800-

...Gateway Observations for Charleston International...

CITY           SKY/WX    TMP DP  RH WIND       PRES   REMARKS
Chas Airport   CLEAR     79  75  87 SW7       29.94S
Seattle        CLEAR     67  58  72 N14       30.11S
Charlotte      PTCLDY    80  72  76 SW7       29.90F
Dallas DFW     PTCLDY    85  72  65 S10       29.87F HX  91
Dallas Love    PTCLDY    85  71  63 S10       29.89F HX  90
Philladelphia  CLOUDY    79  71  76 W14       29.74S
Wash National  CLOUDY    76  75  97 S5        29.76F
Baltimore      MOCLDY    73  73 100 S5        29.76S
Miami          MOCLDY    82  75  79 CALM      30.03F
Detroit        MOCLDY    71  67  87 N8        29.79S
Newark         CLOUDY    70  69  97 E5        29.73F FOG
Laguardia      CLOUDY    72  70  93 CALM      29.72S
J F K          CLOUDY    71  71 100 E7        29.73F
Boston Logan   CLOUDY    76  65  68 N10       29.75F
Ft. Lauderdale MOCLDY    83  76  79 SE8       30.03F HX  91
Chicago O`Hare PTCLDY    73  69  87 CALM      29.79S
Chicago Midway PTCLDY    75  70  84 SE3       29.78F
Houston Bush   PTCLDY    80  76  87 S3        29.94S
Houston Hobby  PTCLDY    82  75  79 S7        29.94S
Nashville      CLEAR     82  70  66 SW6       29.91F
Atlanta        CLEAR     76  74  93 W7        29.97F

$$

GAZ044-118-TXZ119-213-NCZ071-DCZ001-MDZ014-506-PAZ021-071-NJZ106-
NYZ176-178-MAZ106-OHZ011-021-055-MIZ076-KYZ091-ILZ014-INZ047-
MNZ060-ONZ431-230800-

...Gateway Observations for Savannah International...

CITY           SKY/WX    TMP DP  RH WIND       PRES   REMARKS
Savannah Arpt  CLEAR    N/A N/A N/A SW7       29.97F
Atlanta        CLEAR     76  74  93 W7        29.97F
Charlotte      PTCLDY    80  72  76 SW7       29.90F
Dallas DFW     PTCLDY    85  72  65 S10       29.87F HX  91
Houston Bush   PTCLDY    80  76  87 S3        29.94S
Wash National  CLOUDY    76  75  97 S5        29.76F
Wash Dulles    CLOUDY    73  72  96 S5        29.77F
Baltimore      MOCLDY    73  73 100 S5        29.76S
Philadelphia   CLOUDY    79  71  76 W14       29.74S
Newark         CLOUDY    70  69  97 E5        29.73F FOG
Laguardia      CLOUDY    72  70  93 CALM      29.72S
J F K          CLOUDY    71  71 100 E7        29.73F
Boston         CLOUDY    76  65  68 N10       29.75F
Pittsburg      MOCLDY    73  73 100 SW5       29.80S
Akron          CLEAR     73  69  87 W3        29.79F
Cleveland      PTCLDY    74  70  87 W6        29.78F
Cincinnati     CLOUDY    72  72 100 SE6       29.81F
Columbus       CLOUDY    73  72  96 S5        29.81S
Detroit        MOCLDY    71  67  87 N8        29.79S
Chicago O`Hare PTCLDY    73  69  87 CALM      29.79S
Minneapolis    PTCLDY    72  61  68 NW6       29.83F
Indianapolis   CLOUDY    75  71  87 SW8       29.77F
Toronto Canada MOCLDY    68  64  88 S3        29.78F

$$




USA.gov is the U.S. government's official web portal to all federal, state and local government web resources and services.